Location: Unspecified
(44.0704°N, 88.6889°W)
Time: 08:24:53
(UTC+02:00)

Okean 3 - Pass Details

Date: 30 March 2019
Orbit: 576 x 602 km, 82.5° (Epoch: 25 April)

Event Time Altitude Azimuth Distance (km) Brightness Sun altitude
Exits shadow 10:24:46 27° 151° (SSE) 1,178 4.9 -23.7°
Maximum altitude 10:26:46 46° 93° (E) 810 4.4 -23.4°
Drops below altitude 10° 10:30:54 10° 20° (NNE) 1,954 6.8 -22.8°
Sets 10:33:10 0° 15° (NNE) 2,860 7.6 -22.4°
